This is the latest recevied weather packets stored in our database for station/object K4KJQ-13. If no packets are shown the sender has not sent any weather packets the latest 10 day(s).
| Time | Temp. | Humidity | Pressure | Rain* | Wind** | Luminosity | Snow |
|---|---|---|---|---|---|---|---|
| 1777891273 | 10.56° C | 100% | 0 hPa | 3.56 mm | - | - | - |
| 1777890973 | 10.56° C | 100% | 0 hPa | 3.81 mm | - | - | - |
| 1777890673 | 10.56° C | 100% | 0 hPa | 5.08 mm | - | - | - |
| 1777890373 | 10.56° C | 100% | 0 hPa | 5.08 mm | - | - | - |
| 1777890073 | 11.11° C | 100% | 0 hPa | 4.57 mm | - | - | - |
| 1777889773 | 10.56° C | 100% | 0 hPa | 4.32 mm | - | - | - |
| 1777889473 | 10.56° C | 100% | 0 hPa | 4.06 mm | - | - | - |
| 1777889173 | 10.56° C | 100% | 0 hPa | 4.06 mm | - | - | - |
| 1777888873 | 10.56° C | 100% | 0 hPa | 4.06 mm | - | - | - |
| 1777888573 | 10.56° C | 100% | 0 hPa | 3.81 mm | - | - | - |
| 1777888273 | 10° C | 100% | 0 hPa | 3.05 mm | - | - | - |
| 1777887973 | 10.56° C | 100% | 0 hPa | 2.54 mm | - | - | - |
| 1777887673 | 10.56° C | 100% | 0 hPa | 2.54 mm | - | - | - |
| 1777887373 | 11.11° C | 100% | 0 hPa | 2.03 mm | - | - | - |
| 1777887073 | 12.78° C | 100% | 0 hPa | 0.51 mm | - | - | - |
| 1777886773 | 12.22° C | 100% | 0 hPa | 0 mm | - | - | - |
| 1777886473 | 12.78° C | 100% | 0 hPa | 0 mm | - | - | - |
| 1777886173 | 12.22° C | 100% | 0 hPa | 0 mm | - | - | - |
| 1777885873 | 12.22° C | 100% | 0 hPa | 0 mm | - | - | - |
| 1777885573 | 12.22° C | 100% | 0 hPa | 0 mm | - | - | - |
| 1777885273 | 12.22° C | 100% | 0 hPa | 0 mm | - | - | - |
| 1777884973 | 12.22° C | 100% | 0 hPa | 0 mm | - | - | - |
| 1777884673 | 12.22° C | 100% | 0 hPa | 0 mm | - | - | - |
| 1777884373 | 12.22° C | 100% | 0 hPa | 0 mm | - | - | - |
| 1777884073 | 12.22° C | 100% | 0 hPa | 0 mm | - | - | - |
* Rain latest hour (hover to see other rain measurements)
** Current wind speed in m/s (hover to see current wind gust speed)